Lowell, ID

9:07 PM MDT on April 27, 2017 (GMT -0600)
Lowell

Weather History for KP69 - March, 2013

Change the Weather History Date:

Wednesday, March 20, 2013

  Actual Average Record
Temperature  
Mean Temperature 46 °F -  
Max Temperature 57 °F 54 °F 73 °F (1999)
Min Temperature 36 °F 32 °F 28 °F (2004)
Degree Days  
Heating Degree Days 18    
Moisture  
Dew Point 39 °F    
Average Humidity 87    
Maximum Humidity 97    
Minimum Humidity 59    
Precipitation  
Precipitation 0.82 in - - ()
Sea Level Pressure  
Sea Level Pressure 29.81 in    
Wind  
Wind Speed 2 mph (NNW)    
Max Wind Speed 9 mph    
Max Gust Speed 16 mph    
Averages and records for this station are not official NWS values.
T = Trace of Precipitation, MM = Missing Value Source: NWS Daily Summary

Daily Weather History Graph

Daily Weather History Graph

Search for Another Location

Airport or City:

Trip Planner

Search our weather history database for the weather conditions in past years. The results will help you decide how hot, cold, wet, or windy it might be!

Date:

Astronomy

Mar. 20, 2013 Rise Set
Actual Time 7:44 AM MDT 7:54 PM MDT
Civil Twilight 7:14 AM MDT 8:24 PM MDT
Nautical Twilight 6:39 AM MDT 8:59 PM MDT
Astronomical Twilight 6:03 AM MDT 9:35 PM MDT
Moon 1:17 PM MDT (3/20) 3:43 AM MDT (3/20)
Length of Visible Light 13h 10m
Length of Day
12h 10m
First Quarter, 60% of the Moon is Illuminated
Mar 20
First Quarter
Mar 27
Full
Apr 2
Last Quarter
Apr 10
New
Apr 18
First Quarter

Hourly Weather History & Observations

Time (MDT) Temp. Windchill Dew Point Humidity Pressure Visibility Wind Dir Wind Speed Gust Speed Precip Events Conditions
12:52 AM 41.0 °F 38.0 °F 37.0 °F 86% 29.96 in - NNW 4.6 mph - N/A   Unknown
1:52 AM 39.9 °F 37.8 °F 37.0 °F 89% 29.91 in - North 3.5 mph - N/A   Unknown
2:52 AM 39.9 °F 37.8 °F 36.0 °F 86% 29.90 in - Variable 3.5 mph - N/A   Unknown
3:52 AM 39.9 °F - 37.0 °F 89% 29.86 in - Calm Calm - N/A   Unknown
4:52 AM 39.9 °F 37.8 °F 36.0 °F 86% 29.83 in - NW 3.5 mph - N/A   Unknown
5:52 AM 39.0 °F 36.8 °F 37.0 °F 93% 29.86 in - North 3.5 mph - N/A   Unknown
6:52 AM 39.0 °F - 37.9 °F 96% 29.86 in - Calm Calm - 0.04 in   Unknown
7:52 AM 37.9 °F 35.5 °F 37.0 °F 97% 29.84 in - North 3.5 mph - 0.02 in   Unknown
8:52 AM 39.0 °F 36.8 °F 37.9 °F 96% 29.83 in - North 3.5 mph - N/A   Unknown
9:52 AM 39.9 °F - 37.9 °F 93% 29.83 in - Calm Calm - N/A   Unknown
10:52 AM 43.0 °F - 39.9 °F 89% 29.80 in - Calm Calm - 0.02 in   Unknown
11:52 AM 46.9 °F - 39.9 °F 77% 29.74 in - Variable 3.5 mph - N/A   Unknown
12:52 PM 50.0 °F - 42.1 °F 74% 29.70 in - Variable 3.5 mph - N/A   Unknown
1:52 PM 52.0 °F - 44.1 °F 74% 29.67 in - Calm Calm - N/A   Unknown
2:52 PM 57.9 °F - 45.0 °F 62% 29.61 in - Calm Calm - N/A   Unknown
3:52 PM 57.0 °F - 43.0 °F 59% 29.55 in - Calm Calm - N/A   Unknown
4:52 PM 48.9 °F - 43.0 °F 80% 29.67 in - North 9.2 mph 16.1 mph 0.02 in   Unknown
5:52 PM 42.1 °F - 39.9 °F 92% 29.82 in - Calm Calm - 0.43 in   Unknown
6:52 PM 39.9 °F - 39.0 °F 97% 29.83 in - Calm Calm - 0.15 in   Unknown
7:52 PM 39.0 °F - 37.0 °F 93% 29.85 in - Calm Calm - 0.05 in   Unknown
8:52 PM 37.0 °F - 36.0 °F 96% 29.88 in - Calm Calm - 0.09 in   Unknown
9:52 PM 36.0 °F - 35.1 °F 97% 29.90 in - Calm Calm - N/A   Unknown
10:52 PM 36.0 °F - 35.1 °F 97% 29.90 in - Calm Calm - N/A   Unknown
11:52 PM 36.0 °F - 35.1 °F 97% 29.92 in - Calm Calm - N/A   Unknown